Kezdőlap
METAR-TAF:

METAR-TAF

Repülőterek :

South St. Paul Municipal Airport (Richard E. Fleming Field)

South St. Paul, Minnesota, Amerikai Egyesült Államok

földrajzi szélesség: 44-51-26N, földrajzi hosszúság: 093-01-58W, magasság: 250 m

Jelenlegi meteorológiai megfigyelések

A jelentés 20 perccel ezelõtt készült, 14:15 UTC
Nyugati szél 6 kt
Hőmérséklet 0°C
Páratartalom 47%
Légköri nyomás 1027 hPa
Látótávolság: 16.1 km
Borult 12000 lábon

METAR: KSGS 041415Z AUTO 28006KT 10SM OVC120 00/M10 A3032 RMK AO2 T00001101

Idő: 08:35 (14:35 UTC)


TAF: hiányzik

Meteorológiai megfigyelések és előrejelzések több, mint 4000 repülőtéren (METAR és TAF jelentéseket).

A térképen piros és sárga pontok jelzik az elérhető meteorológiai állomásokat.

Mozgassa az egeret a pont fölött, hogy megjelenjen az állomás neve.

Azután kattintson az időjárási megfigyelések és előrejelzések megtekintéséhez.

A térkép megváltoztatása: kattintson a fekete keresztel jelölt zöld gombra ráközelítéshez, a vonallal jelölt zöld gombra távolításhoz, vagy a zöld nyilakra a szomszédos térképek eléréséhez.


METAR-TAF: